Regional Weather Roundup
Issued by NWS

Home | Current Version | Previous Version | Text Only | Print | Product List | Glossary Off
Versions: 1 2 3 4 5 6 7 8 9 10 11 12 13 14 15 16 17 18 19 20 21 22 23 24 25 26 27 28 29 30 31 32 33 34 35 36 37 38 39 40 41 42 43 44 45 46 47 48 49 50

000
ASUS43 KBIS 011110
RWRND

NORTH DAKOTA REGIONAL WEATHER ROUNDUP
NATIONAL WEATHER SERVICE BISMARCK ND
500 AM CST SUN FEB 01 2015

NOTE: "FAIR" INDICATES FEW OR NO CLOUDS BELOW 12,000 FEET WITH NO
SIGNIFICANT WEATHER AND/OR OBSTRUCTIONS TO VISIBILITY.


NDZ001>003-009>011-017-011200-
NORTHWEST NORTH DAKOTA

CITY           SKY/WX    TMP DP  RH WIND       PRES   REMARKS
WILLISTON      PTCLDY   -14 -20  74 W3        30.48F
MINOT          CLOUDY    -9 -18  64 NW8       30.50S WCI -25
MINOT AFB      PTCLDY    -8 -16  67 N6        30.51S WCI -21
$$

NDZ018>021-031>035-040>046-011200-
SOUTHWEST NORTH DAKOTA

CITY           SKY/WX    TMP DP  RH WIND       PRES   REMARKS
BISMARCK       CLOUDY    -5 -13  68 N13       30.48R WCI -24
DICKINSON      FLURRIES  -4 -10  75 N7        30.37R WCI -18
GARRISON         N/A     -8 -15  71 N7        30.47S WCI -23
HETTINGER ARPT LGT SNOW  -3  -8  79 N9        30.36S WCI -19
$$

NDZ004>008-012>016-024-026-027-054-011200-
NORTHEAST NORTH DAKOTA

CITY           SKY/WX    TMP DP  RH WIND       PRES   REMARKS
GRAND FORKS    MOCLDY   -11 -19  68 N15       30.57S WCI -33
GRND FRKS AFB  PTCLDY   -12 -21  65 N13       30.57S WCI -33
DEVILS LAKE    MOCLDY   -11 -24  53 N10       30.49F WCI -30
$$

NDZ022-023-025-028>030-036>039-047>053-011200-
SOUTHEAST NORTH DAKOTA

CITY           SKY/WX    TMP DP  RH WIND       PRES   REMARKS
FARGO          CLOUDY    -5 -13  68 N20       30.47S WCI -28
JAMESTOWN      MOCLDY    -7 -15  68 N16       30.45R WCI -29
$$



USA.gov is the U.S. government's official web portal to all federal, state and local government web resources and services.